Sacramento International, CA

7:57 PM PST on December 15, 2017 (GMT -0800)
Sacramento International

Weather History for KSMF - September, 2013

Change the Weather History Date:

Friday, September 13, 2013

  Actual Average Record
Temperature  
Mean Temperature 76 °F -  
Max Temperature 91 °F 87 °F 105 °F (1971)
Min Temperature 60 °F 56 °F 46 °F (2008)
Cooling Degree Days 10    
Growing Degree Days 26 (Base 50)    
Moisture  
Dew Point 57 °F    
Average Humidity 62    
Maximum Humidity 90    
Minimum Humidity 32    
Precipitation  
Precipitation 0.00 in - - ()
Sea Level Pressure  
Sea Level Pressure 29.77 in    
Wind  
Wind Speed 8 mph (South)    
Max Wind Speed 14 mph    
Max Gust Speed -    
Visibility 10 miles    
Events      
Averages and records for this station are not official NWS values.
T = Trace of Precipitation, MM = Missing Value Source: NWS Daily Summary

Daily Weather History Graph

Daily Weather History Graph

Search for Another Location

Airport or City:

Trip Planner

Search our weather history database for the weather conditions in past years. The results will help you decide how hot, cold, wet, or windy it might be!

Date:

Astronomy

Sep. 13, 2013 Rise Set
Actual Time 6:46 AM PDT 7:17 PM PDT
Civil Twilight 6:19 AM PDT 7:43 PM PDT
Nautical Twilight 5:48 AM PDT 8:15 PM PDT
Astronomical Twilight 5:15 AM PDT 8:47 PM PDT
Moon 3:09 PM PDT (9/13) 12:23 AM PDT (9/13)
Length of Visible Light 13h 24m
Length of Day
12h 30m
Waxing Gibbous, 62% of the Moon is Illuminated
Sep 13
Waxing Gibbous
Sep 19
Full
Sep 26
Last Quarter
Oct 4
New
Oct 11
First Quarter

Hourly Weather History & Observations

Time (PDT) Temp. Heat Index Dew Point Humidity Pressure Visibility Wind Dir Wind Speed Gust Speed Precip Events Conditions
12:53 AM 64.9 °F - 57.0 °F 75% 29.84 in 10.0 mi SSE 10.4 mph - N/A   Clear
1:53 AM 64.9 °F - 57.9 °F 78% 29.84 in 10.0 mi SE 10.4 mph - N/A   Clear
2:53 AM 64.0 °F - 57.9 °F 80% 29.84 in 10.0 mi SSW 9.2 mph - N/A   Clear
3:53 AM 62.1 °F - 57.9 °F 86% 29.83 in 10.0 mi South 8.1 mph - N/A   Clear
4:53 AM 61.0 °F - 57.9 °F 90% 29.83 in 10.0 mi SE 5.8 mph - N/A   Clear
5:53 AM 61.0 °F - 57.0 °F 87% 29.84 in 10.0 mi SE 6.9 mph - N/A   Clear
6:53 AM 60.1 °F - 57.0 °F 90% 29.85 in 10.0 mi SSE 6.9 mph - N/A   Clear
7:53 AM 61.0 °F - 57.0 °F 87% 29.85 in 10.0 mi SSE 8.1 mph - N/A   Clear
8:53 AM 64.0 °F - 57.9 °F 80% 29.86 in 10.0 mi Variable 3.5 mph - N/A   Clear
9:53 AM 69.1 °F - 57.9 °F 68% 29.86 in 10.0 mi South 5.8 mph - N/A   Clear
10:53 AM 73.9 °F - 59.0 °F 59% 29.84 in 10.0 mi South 8.1 mph - N/A   Clear
11:53 AM 78.1 °F - 60.1 °F 54% 29.82 in 10.0 mi Variable 3.5 mph - N/A   Clear
12:53 PM 82.9 °F 83.2 °F 60.1 °F 46% 29.80 in 10.0 mi Calm Calm - N/A   Clear
1:53 PM 87.1 °F 86.7 °F 60.1 °F 40% 29.77 in 10.0 mi SSW 4.6 mph - N/A   Clear
2:53 PM 90.0 °F 88.6 °F 57.0 °F 33% 29.73 in 10.0 mi Variable 4.6 mph - N/A   Clear
3:53 PM 91.0 °F 90.0 °F 57.9 °F 33% 29.70 in 10.0 mi Variable 3.5 mph - N/A   Clear
4:53 PM 91.9 °F 90.8 °F 57.9 °F 32% 29.68 in 10.0 mi South 10.4 mph - N/A   Clear
5:53 PM 88.0 °F 86.9 °F 57.9 °F 36% 29.68 in 10.0 mi South 13.8 mph - N/A   Clear
6:53 PM 82.0 °F 81.7 °F 57.0 °F 42% 29.67 in 10.0 mi South 12.7 mph - N/A   Clear
7:53 PM 75.0 °F - 55.9 °F 51% 29.67 in 10.0 mi South 12.7 mph - N/A   Clear
8:53 PM 71.1 °F - 55.0 °F 57% 29.68 in 10.0 mi South 11.5 mph - N/A   Clear
9:53 PM 69.1 °F - 55.0 °F 61% 29.69 in 10.0 mi South 10.4 mph - N/A   Clear
10:53 PM 68.0 °F - 55.0 °F 63% 29.70 in 10.0 mi SSE 11.5 mph - N/A   Clear
11:53 PM 66.9 °F - 55.0 °F 66% 29.70 in 10.0 mi SE 11.5 mph - N/A   Clear